Location: ??????
(38.0131°N, 23.7723°E)
Time: 05:31:23
(UTC+00:00)

Meteor 1-21 Rocket - Pass Details

Date: 17 October 2021
Orbit: 834 x 906 km, 81.2° (Epoch: 28 November)

Event Time Altitude Azimuth Distance (km) Brightness Sun altitude
Rises 16:29:05 0° 356° (N) 3,497 7.4 -9.5°
Reaches altitude 10° 16:31:36 10° 1° (N) 2,564 6.7 -10.0°
Maximum altitude 16:37:19 53° 78° (ENE) 1,099 4.4 -11.2°
Drops below altitude 10° 16:43:03 10° 154° (SSE) 2,577 6.5 -12.3°
Sets 16:45:34 0° 159° (SSE) 3,516 7.2 -12.8°
